Location: *
(41.7492°S, 135.4150°W)
Time: 00:32:52
(UTC+00:00)

ATLAS 2AS CENTAUR R/B - Pass Details

Date: 20 September 2021
Orbit: 959 x 1253 km, 63.7° (Epoch: 25 October)

Event Time Altitude Azimuth Distance (km) Brightness Sun altitude
Rises 13:30:49 0° 220° (SW) 3,863 5.4 -16.1°
Reaches altitude 10° 13:33:27 10° 224° (SW) 2,944 4.7 -15.7°
Maximum altitude 13:40:12 52° 297° (WNW) 1,400 2.9 -14.4°
Drops below altitude 10° 13:47:22 10° 11° (N) 3,119 5.1 -13.1°
Sets 13:50:15 0° 15° (NNE) 4,110 5.8 -12.6°
